[[[{"header":{"parameterUnit":"kt","parameterCategory":2,"dx":1,"dy":1,"la1":30.253999710083008,"la2":30.299108505249023,"lo1":-89.0895004272461,"lo2":-89.04439544677734,"nx":28,"ny":28,"refTime":"2022-09-19T21:00:00:Z","depth":0,"parameterNumber":1,"parameterNumberName":"U-component_of_WINDS"},"data":[-0.0372,-0.0199,-0.0154,0.0064,0.0142,0.0299,0.037,0.0466,0.0555,0.0748,0.0867,0.0932,0.104,0.1193,0.1325,0.1351,0.1403,0.1429,0.1454,0.1296,0.1277,0.1259,0.1219,0.144,0.144,0.1611,0.1613,0.1614,-0.0499,-0.0421,-0.0291,-0.0134,-0.0023,-0.0022,0.0103,0.0196,0.0337,0.0449,0.057,0.0744,0.0889,0.099,0.1137,0.1218,0.1228,0.1254,0.1248,0.1264,0.1097,0.1055,0.1244,0.1244,0.1244,0.1244,0.1244,0.1244,-0.0718,-0.0616,-0.0495,-0.0353,-0.0261,-0.0156,-0.005,0.0028,0.0156,0.0315,0.0347,0.0509,0.063,0.0832,0.0912,0.1039,0.1018,0.1062,0.1073,0.1082,0.1085,0.0824,0.1067,0.1066,0.1066,0.1066,0.1066,0,-0.0866,-0.0834,-0.0706,-0.0564,-0.0457,-0.0342,-0.0228,-0.0161,-0.0076,0.0028,0.0181,0.0277,0.0468,0.0617,0.0767,0.0842,0.0855,0.0864,0.0894,0.0878,0.0843,0.086,0.0581,0.0856,0.0855,0.0853,0.0852,0.0852,-0.1087,-0.097,-0.0819,-0.0735,-0.0661,-0.0525,-0.0435,-0.0368,-0.0275,-0.0124,-0.0035,0.0116,0.0241,0.048,0.0572,0.0716,0.0723,0.0822,0.0745,0.0724,0.0721,0.0712,0.0723,0.0835,0.0837,0.0839,0.084,0,-0.1216,-0.114,-0.0944,-0.0804,-0.0766,-0.0647,-0.0528,-0.0421,-0.0355,-0.0199,-0.0159,-0.0056,0.0095,0.0172,0.0361,0.0396,0.059,0.0596,0.0547,0.0551,0.0645,0.0634,0.0944,0.0987,0.0762,0.0764,0.0766,0,-0.1376,-0.1225,-0.112,-0.101,-0.0841,-0.0778,-0.0611,-0.0539,-0.0431,-0.0307,-0.028,-0.0164,-0.0083,0.0045,0.0098,0.0271,0.0308,0.0344,0.0356,0.034,0.0335,0.039,0.0378,0.0383,0.0381,0.038,0.0378,0,-0.1589,-0.1353,-0.1175,-0.1109,-0.0943,-0.086,-0.0787,-0.0665,-0.0576,-0.0447,-0.0389,-0.0242,-0.0163,-0.005,0.0016,-0.004,0.0231,0.0168,0.0268,0.0266,0.0323,0.0318,0.0575,0.0376,0.0376,0.0375,0.0375,0,-0.1707,-0.1579,-0.1329,-0.1192,-0.1132,-0.1013,-0.0866,-0.0746,-0.0619,-0.0578,-0.0476,-0.0448,-0.0287,-0.0356,-0.0135,-0.0227,-0.015,-0.0099,-0.0091,-0.0073,-0.0153,-0.0022,0.0217,0.0243,-0.0057,-0.006,-0.0063,0,-0.1974,-0.17,-0.1644,-0.1407,-0.1271,-0.1251,-0.1116,-0.1004,-0.0939,-0.0813,-0.0739,-0.0595,-0.0629,-0.0573,-0.0473,-0.0392,-0.0272,-0.0405,-0.0226,-0.022,-0.0264,-0.0043,-0.0028,0.0156,-0.0108,-0.0103,-0.01,0,-0.2171,-0.197,-0.1931,-0.1854,-0.1695,-0.1579,-0.1424,-0.1268,-0.1188,-0.1062,-0.0932,-0.0725,-0.0744,-0.065,-0.061,-0.051,-0.0351,-0.0543,-0.0539,-0.0514,-0.0122,-0.011,-0.0079,-0.0347,-0.0341,-0.0337,-0.0135,0,-0.2372,-0.2224,-0.2115,-0.1943,-0.1841,-0.1686,-0.1604,-0.1508,-0.1482,-0.1415,-0.122,-0.1103,-0.0941,-0.0883,-0.0854,-0.065,-0.0672,-0.0692,-0.0754,-0.0608,-0.054,-0.0512,-0.0863,-0.0864,-0.0866,-0.0866,0,0,-0.2648,-0.2434,-0.2375,-0.2222,-0.2133,-0.2113,-0.1955,-0.1865,-0.1682,-0.162,-0.1654,-0.1345,-0.1248,-0.1019,-0.0967,-0.09,-0.0856,-0.0909,-0.0678,-0.0657,-0.0638,-0.0566,-0.0538,-0.0868,-0.0869,-0.0869,-0.0869,0,-0.2705,-0.2609,-0.2454,-0.2358,-0.2215,-0.2152,-0.2115,-0.1967,-0.1917,-0.1723,-0.1708,-0.158,-0.1332,-0.1233,-0.115,-0.0935,-0.093,-0.0891,-0.0805,-0.0692,-0.067,-0.065,-0.0575,-0.0549,-0.0872,-0.0872,-0.0872,0,-0.2887,-0.278,-0.2696,-0.2489,-0.2394,-0.2252,-0.2297,-0.2143,-0.2037,-0.2019,-0.1827,-0.175,-0.1609,-0.1402,-0.1305,-0.1333,-0.1002,-0.1089,-0.108,-0.1068,-0.0954,-0.0927,-0.0904,-0.1215,-0.1217,-0.1218,0,0,-0.2947,-0.2808,-0.2671,-0.2495,-0.2437,-0.2339,-0.2254,-0.2219,-0.2093,-0.2043,-0.1945,-0.1822,-0.1678,-0.1584,-0.1444,-0.1227,-0.1193,-0.1135,-0.1119,-0.1106,-0.1087,-0.097,-0.0944,-0.1224,-0.1224,-0.1224,0,0,-0.2975,-0.281,-0.2806,-0.2592,-0.2474,-0.2326,-0.2221,-0.2212,-0.2077,-0.2086,-0.2015,-0.198,-0.1783,-0.1708,-0.1797,-0.1464,-0.1526,-0.1503,-0.1521,-0.1499,-0.1483,-0.1506,-0.1825,0,0,0,0,0,-0.2991,-0.2831,-0.2829,-0.2781,-0.2518,-0.2328,-0.2294,-0.2234,-0.2281,-0.22,-0.2116,-0.2115,-0.1742,-0.1819,-0.1771,-0.1673,-0.13,-0.1286,-0.1274,-0.1245,-0.1223,-0.1205,0,0,0,0,0,0,-0.2972,-0.2913,-0.2833,-0.268,-0.262,-0.2333,-0.24,-0.2379,-0.2288,-0.2291,-0.2131,-0.211,-0.2054,-0.184,-0.1797,-0.1705,-0.1839,-0.1295,-0.1283,-0.1273,-0.1238,-0.122,-0.1205,0,0,0,0,0,-0.2956,-0.2909,-0.2502,-0.2681,-0.2629,-0.2512,-0.2405,-0.2388,-0.2317,-0.2185,-0.2164,-0.228,-0.2053,-0.2013,-0.1814,-0.1726,-0.1868,-0.1852,-0.1287,-0.1278,-0.127,-0.1229,0,0,0,0,0,0,-0.2944,-0.2891,-0.2491,-0.2473,-0.2737,-0.2526,-0.2491,-0.2397,-0.2216,-0.2193,-0.2331,-0.2336,-0.205,-0.202,-0.1989,-0.1737,-0.1891,-0.1875,-0.1866,-0.128,-0.1273,-0.1267,0,0,0,0,0,0,-0.2916,-0.2876,-0.2481,-0.2555,-0.2545,-0.254,-0.2509,-0.233,-0.2214,-0.2371,-0.237,-0.2335,-0.2095,-0.2023,-0.2,-0.1723,-0.1909,-0.1894,-0.1884,-0.1877,-0.1275,-0.1269,0,0,0,0,0,0,-0.2898,-0.2863,-0.256,-0.2552,-0.2543,-0.2335,-0.2381,-0.2114,-0.228,-0.238,-0.2293,-0.2299,-0.2099,-0.2073,-0.2007,-0.174,-0.1727,-0.1909,-0.1899,-0.1891,-0.1886,0,0,0,0,0,0,0,-0.2884,-0.313,-0.2598,-0.2549,-0.2541,-0.2305,-0.23,-0.2295,-0.2281,-0.2286,-0.2291,-0.2296,-0.1995,-0.1979,-0.1962,-0.1754,0,0,-0.191,-0.1903,0,0,0,0,0,0,0,0,-0.3143,-0.3133,-0.2598,-0.2594,-0.259,-0.2305,-0.23,-0.2296,-0.2282,-0.2286,-0.229,-0.2294,-0.1991,-0.1978,-0.1964,0,0,0,0,0,0,0,0,0,0,0,0,0,0,0,-0.2597,-0.2594,0,-0.2304,-0.2301,-0.2297,-0.2282,-0.2286,-0.2289,-0.2292,-0.1987,-0.1976,-0.1965,0,0,0,0,0,0,0,0,0,0,0,0,0,0,0,0,0,0,0,0,0,0,0,0,0,0,0,0,0,0,0,0,0,0,0,0,0,0,0,0,0,0,0,0,0,0,0,0,0,0,0,0,0,0,0,0,0,0,0,0,0,0,0,0,0,0,0,0,0]}],[{"header":{"parameterUnit":"kt","parameterCategory":2,"dx":1,"dy":1,"la1":30.253999710083008,"la2":30.299108505249023,"lo1":-89.0895004272461,"lo2":-89.04439544677734,"nx":28,"ny":28,"refTime":"2022-09-19T21:00:00:Z","depth":0,"parameterNumber":2,"parameterNumberName":"V-component_of_WINDS"},"data":[1.7642,1.7728,1.7709,1.7799,1.7798,1.7855,1.7869,1.7886,1.7896,1.7963,1.7999,1.7991,1.7993,1.8032,1.8069,1.8065,1.8079,1.8121,1.8107,1.7936,1.7911,1.7887,1.7861,1.8127,1.8127,1.8283,1.8285,1.8286,1.7508,1.7507,1.7551,1.758,1.7617,1.7563,1.7583,1.7617,1.7671,1.7686,1.7721,1.778,1.7825,1.7814,1.7854,1.7893,1.7869,1.7904,1.7897,1.7897,1.7715,1.7689,1.7922,1.7922,1.7922,1.7922,1.7922,1.7922,1.7259,1.7314,1.732,1.7367,1.7378,1.7399,1.7447,1.7435,1.7479,1.7519,1.7492,1.7554,1.7565,1.7607,1.7618,1.7664,1.7622,1.7655,1.7661,1.7668,1.7675,1.7437,1.7672,1.7672,1.7671,1.767,1.767,0,1.7068,1.7048,1.7091,1.7127,1.7162,1.7189,1.7212,1.7242,1.7197,1.7237,1.7291,1.7319,1.7376,1.7424,1.746,1.7464,1.7411,1.7408,1.7429,1.7436,1.7437,1.7429,1.7125,1.74,1.7397,1.7396,1.7394,1.7394,1.6807,1.6877,1.6878,1.691,1.6917,1.6973,1.7001,1.6957,1.6989,1.7011,1.7063,1.7113,1.7149,1.7243,1.7229,1.7272,1.7246,1.7351,1.7252,1.7257,1.7237,1.7229,1.7232,1.7368,1.7372,1.7374,1.7376,0,1.666,1.6631,1.6734,1.6729,1.673,1.6805,1.68,1.6856,1.684,1.6913,1.6928,1.6903,1.6959,1.6929,1.6989,1.6971,1.7088,1.7066,1.708,1.7071,1.7156,1.7145,1.7453,1.7487,1.7221,1.7224,1.7226,0,1.6422,1.6518,1.6466,1.6529,1.6632,1.6584,1.6687,1.6684,1.6694,1.6752,1.6689,1.6745,1.6699,1.675,1.6725,1.6816,1.6831,1.6819,1.681,1.682,1.682,1.6831,1.6815,1.6798,1.6796,1.6795,1.6793,0,1.6187,1.6278,1.6379,1.6394,1.64,1.6449,1.6454,1.6467,1.6497,1.6532,1.655,1.6597,1.662,1.6656,1.6621,1.6554,1.6736,1.6637,1.6723,1.6724,1.676,1.6757,1.7043,1.6792,1.6791,1.6791,1.679,0,1.5988,1.6025,1.618,1.618,1.6206,1.6276,1.6314,1.6368,1.6386,1.6373,1.6402,1.6355,1.644,1.6341,1.6454,1.6374,1.6401,1.64,1.6406,1.6405,1.6294,1.6449,1.6732,1.6755,1.6411,1.6408,1.6406,0,1.5723,1.5874,1.5833,1.5983,1.6047,1.5967,1.6044,1.6064,1.6053,1.6106,1.6095,1.6158,1.6079,1.6094,1.6155,1.6145,1.6249,1.6132,1.6201,1.6204,1.6188,1.645,1.6495,1.6674,1.6365,1.637,1.6373,0,1.5513,1.5521,1.5552,1.5564,1.5584,1.564,1.5731,1.5782,1.5817,1.5851,1.5921,1.6014,1.5954,1.5982,1.595,1.6015,1.6178,1.5944,1.5944,1.598,1.6346,1.6386,1.6417,1.6141,1.6146,1.615,1.6341,0,1.5201,1.5276,1.5359,1.5398,1.5438,1.5534,1.5501,1.5547,1.551,1.5496,1.5605,1.5618,1.5673,1.5704,1.5671,1.5832,1.5799,1.5738,1.5635,1.5811,1.5871,1.5897,1.5545,1.5542,1.554,1.5538,0,0,1.4949,1.5056,1.5012,1.5098,1.5127,1.5044,1.5148,1.5169,1.5213,1.5234,1.5178,1.5309,1.5323,1.5458,1.551,1.5537,1.556,1.5502,1.5729,1.5751,1.5771,1.5837,1.5864,1.5533,1.5532,1.5531,1.553,0,1.4826,1.4844,1.4949,1.4967,1.4993,1.4975,1.5001,1.5012,1.5009,1.5119,1.5047,1.511,1.5222,1.5241,1.5265,1.5486,1.5427,1.5507,1.5631,1.5704,1.5729,1.5751,1.5821,1.5848,1.5524,1.5524,1.5524,0,1.4606,1.4614,1.4664,1.4733,1.4749,1.4822,1.4706,1.4791,1.4843,1.475,1.4859,1.4863,1.4891,1.5027,1.5087,1.5037,1.5307,1.5221,1.5237,1.5241,1.531,1.534,1.5367,1.501,1.5008,1.5007,0,0,1.4505,1.4577,1.4572,1.4704,1.4719,1.4695,1.4733,1.4699,1.4725,1.4737,1.4739,1.4768,1.4829,1.4872,1.493,1.5087,1.5085,1.5159,1.5183,1.5203,1.5218,1.5292,1.5322,1.5,1.5,1.5,0,0,1.4456,1.4455,1.4413,1.4562,1.4589,1.4593,1.4674,1.4623,1.4672,1.4657,1.4607,1.4613,1.474,1.4748,1.4666,1.4892,1.4792,1.4811,1.4881,1.4911,1.4935,1.4928,1.4548,0,0,0,0,0,1.4313,1.4454,1.4416,1.4436,1.4526,1.4615,1.4626,1.4586,1.4513,1.4578,1.4571,1.4509,1.4691,1.4618,1.4639,1.4729,1.4918,1.4933,1.4946,1.5073,1.5105,1.5132,0,0,0,0,0,0,1.4321,1.4346,1.4412,1.4424,1.4443,1.4609,1.4477,1.447,1.4505,1.4491,1.4512,1.451,1.4478,1.4604,1.4624,1.4711,1.4541,1.4924,1.4936,1.4947,1.5084,1.511,1.5133,0,0,0,0,0,1.4327,1.4347,1.4501,1.4421,1.4439,1.4419,1.4471,1.4464,1.4491,1.4483,1.4478,1.4458,1.4482,1.4496,1.4616,1.4702,1.4527,1.4535,1.4932,1.4942,1.495,1.5097,0,0,0,0,0,0,1.4331,1.4341,1.4503,1.4507,1.4365,1.4409,1.4415,1.446,1.4479,1.4477,1.4426,1.4415,1.4487,1.4496,1.4508,1.4702,1.4516,1.4524,1.4528,1.4939,1.4947,1.4954,0,0,0,0,0,0,1.433,1.4345,1.4505,1.4436,1.4432,1.44,1.4405,1.4503,1.4481,1.4421,1.4412,1.4421,1.447,1.4498,1.4506,1.466,1.4507,1.4514,1.452,1.4523,1.4946,1.4952,0,0,0,0,0,0,1.4335,1.4348,1.4435,1.4432,1.4427,1.4466,1.4486,1.458,1.4421,1.4421,1.4406,1.4399,1.4473,1.4481,1.4505,1.4657,1.466,1.4507,1.4512,1.4516,1.4518,0,0,0,0,0,0,0,1.434,1.4264,1.4481,1.4428,1.4424,1.4541,1.4542,1.4543,1.442,1.4414,1.4408,1.4402,1.4466,1.4474,1.4482,1.4654,0,0,1.4507,1.451,0,0,0,0,0,0,0,0,1.4257,1.4262,1.4481,1.4482,1.4483,1.4541,1.4542,1.4543,1.4419,1.4414,1.4409,1.4404,1.4468,1.4474,1.4481,0,0,0,0,0,0,0,0,0,0,0,0,0,0,0,1.4481,1.4482,0,1.4541,1.4542,1.4542,1.4418,1.4414,1.441,1.4406,1.447,1.4475,1.448,0,0,0,0,0,0,0,0,0,0,0,0,0,0,0,0,0,0,0,0,0,0,0,0,0,0,0,0,0,0,0,0,0,0,0,0,0,0,0,0,0,0,0,0,0,0,0,0,0,0,0,0,0,0,0,0,0,0,0,0,0,0,0,0,0,0,0,0,0]}]]]